FW8621 Weather Reports


Display with metric or nautical units.
time (UTC)temp
F
wind
direction
speed
MPH
gust
MPH
rain 1hr
in
rain 24hr
in
rain mn
in
humidity
%
barometer
mb
20260507113058 72 0 0.0 2.0 0.00 0.00 0.00 70 1016.2
20260507111557 72 359 0.0 1.0 0.00 0.00 0.00 70 1016.3
20260507110059 73 321 0.0 1.0 0.00 0.00 0.00 67 1016.4
20260507104608 72 0 0.0 1.0 0.00 0.00 0.00 71 1016.4
20260507103113 72 0 0.0 2.0 0.00 0.00 0.00 72 1016.5
20260507101559 70 0 0.0 1.0 0.00 0.00 0.00 74 1016.6
20260507100058 70 0 0.0 1.0 0.00 0.00 0.00 73 1016.6
20260507094601 70 0 0.0 1.0 0.00 0.00 0.00 72 1016.8
20260507093101 71 0 0.0 2.0 0.00 0.00 0.00 66 1016.7
20260507091606 70 0 0.0 1.0 0.00 0.00 0.00 67 1016.6
20260507090100 69 142 0.0 3.0 0.00 0.00 0.00 67 1016.7
20260507084601 70 262 0.0 2.0 0.00 0.00 0.00 66 1016.7
20260507083100 68 183 0.0 1.0 0.00 0.00 0.00 71 1016.5
20260507081559 67 0 0.0 2.0 0.00 0.00 0.00 74 1016.3
20260507080059 66 0 0.0 0.0 0.00 0.00 0.00 77 1016.4
20260507074558 65 0 0.0 0.0 0.00 0.00 0.00 80 1016.3
20260507073103 64 0 0.0 1.0 0.00 0.00 0.00 82 1016.5
20260507071558 64 0 0.0 0.0 0.00 0.00 0.00 84 1016.5
20260507064557 64 0 0.0 0.0 0.00 0.00 0.00 87 1016.2
20260507063058 63 0 0.0 0.0 0.00 0.00 0.00 89 1016.3
20260507061603 62 0 0.0 0.0 0.00 0.00 0.00 90 1016.3
20260507060104 62 0 0.0 0.0 0.00 0.00 0.00 90 1016.3
20260507054609 61 0 0.0 0.0 0.00 0.00 0.00 91 1016.4
20260507053103 61 0 0.0 0.0 0.00 0.00 0.00 91 1016.2
20260507051601 61 0 0.0 0.0 0.00 0.00 0.00 91 1016.0
20260507050106 60 0 0.0 0.0 0.00 0.00 0.00 91 1015.8
20260507044607 60 0 0.0 0.0 0.00 0.00 0.00 91 1015.6
20260507043106 60 0 0.0 0.0 0.00 0.00 0.00 91 1015.5
20260507041608 60 0 0.0 0.0 0.00 0.00 0.00 91 1015.6
20260507040103 61 0 0.0 0.0 0.00 0.00 0.00 91 1015.3
20260507034613 61 0 0.0 0.0 0.00 0.00 0.00 91 1015.3
20260507033107 61 0 0.0 0.0 0.00 0.00 0.00 91 1015.4
20260507031608 61 0 0.0 0.0 0.00 0.00 0.00 91 1015.5
20260507030106 61 0 0.0 0.0 0.00 0.00 0.00 90 1015.2
20260507024611 61 0 0.0 0.0 0.00 0.00 0.00 89 1015.0
20260507023059 62 0 0.0 0.0 0.00 0.00 0.00 90 1015.0
20260507021558 62 0 0.0 0.0 0.00 0.00 0.00 90 1015.0
20260507014603 61 0 0.0 0.0 0.00 0.00 0.00 89 1014.7
20260507013103 61 0 0.0 0.0 0.00 0.00 0.00 89 1014.5
20260507011559 61 0 0.0 0.0 0.00 0.00 0.00 89 1014.2
20260507010100 61 0 0.0 0.0 0.00 0.00 0.00 88 1014.2
20260507004600 61 0 0.0 0.0 0.00 0.00 0.00 88 1014.3
20260507003101 61 0 0.0 0.0 0.00 0.00 0.00 88 1014.3
20260507001558 61 0 0.0 0.0 0.00 0.00 0.00 88 1014.6
20260507000101 61 0 0.0 0.0 0.00 0.00 0.00 88 1014.6
20260506234603 62 0 0.0 0.0 0.00 0.00 0.00 88 1014.8
20260506233102 62 0 0.0 0.0 0.00 0.00 0.00 87 1015.0
20260506231557 62 0 0.0 0.0 0.00 0.00 0.00 87 1015.0
20260506230057 62 0 0.0 0.0 0.00 0.00 0.00 87 1015.1
20260506224607 62 0 0.0 0.0 0.00 0.00 0.00 87 1015.1
20260506223057 62 0 0.0 0.0 0.00 0.00 0.00 87 1015.2
20260506221601 62 0 0.0 0.0 0.00 0.00 0.00 87 1015.1
20260506214610 63 0 0.0 0.0 0.00 0.00 0.00 86 1015.0
20260506213057 63 0 0.0 0.0 0.00 0.00 0.00 86 1014.9
20260506211559 63 0 0.0 0.0 0.00 0.00 0.00 86 1014.9
20260506210100 63 0 0.0 0.0 0.00 0.00 0.00 86 1015.0
20260506204621 63 0 0.0 0.0 0.00 0.00 0.00 86 1014.9
20260506203057 63 0 0.0 0.0 0.00 0.00 0.00 85 1015.0
20260506201557 63 0 0.0 0.0 0.00 0.00 0.00 85 1015.1
20260506200057 63 0 0.0 0.0 0.00 0.00 0.00 84 1015.0
20260506194606 64 0 0.0 0.0 0.00 0.00 0.00 84 1014.8
20260506193102 64 0 0.0 0.0 0.00 0.00 0.00 83 1014.9
20260506191600 64 0 0.0 0.0 0.00 0.00 0.00 83 1014.5
20260506190101 64 0 0.0 1.0 0.00 0.00 0.00 82 1014.3
20260506184608 65 0 0.0 0.0 0.00 0.00 0.00 82 1014.3
20260506183110 65 0 0.0 0.0 0.00 0.00 0.00 82 1014.2
20260506181606 65 0 0.0 1.0 0.00 0.00 0.00 80 1014.1
20260506174559 65 139 0.0 2.0 0.00 0.00 0.00 82 1013.9
20260506173101 66 136 0.0 2.0 0.00 0.00 0.00 81 1013.8
20260506171605 66 128 0.0 3.0 0.00 0.00 0.00 78 1013.8
20260506170107 66 134 2.0 4.0 0.00 0.00 0.00 76 1013.8
20260506164604 67 0 1.0 3.0 0.00 0.00 0.00 75 1013.7
20260506163106 67 0 0.0 3.0 0.00 0.00 0.00 74 1013.8
20260506161607 67 0 0.0 3.0 0.00 0.00 0.00 75 1014.0
20260506160059 67 0 1.0 5.0 0.00 0.00 0.00 76 1014.0
20260506154614 66 143 1.0 4.0 0.00 0.00 0.00 79 1013.8
20260506153059 68 137 0.0 5.0 0.00 0.00 0.00 76 1013.8
20260506151559 68 232 1.0 4.0 0.00 0.00 0.00 80 1013.8
20260506150058 68 148 1.0 3.0 0.00 0.00 0.00 77 1013.5
20260506144605 68 0 0.0 6.0 0.00 0.00 0.00 78 1013.2
20260506143058 68 150 2.0 6.0 0.00 0.00 0.00 76 1013.3
20260506141603 71 139 1.0 4.0 0.00 0.00 0.00 69 1013.3
20260506140114 72 0 0.0 4.0 0.00 0.00 0.00 68 1013.5
20260506134558 73 131 1.0 4.0 0.00 0.00 0.00 63 1013.6
20260506133104 75 0 2.0 6.0 0.00 0.00 0.00 63 1013.8
20260506131601 73 0 1.0 5.0 0.00 0.00 0.00 67 1014.0
20260506130100 75 0 0.0 2.0 0.00 0.00 0.00 65 1014.0
20260506124558 73 145 0.0 4.0 0.00 0.00 0.00 67 1014.0
20260506123101 72 0 0.0 2.0 0.00 0.00 0.00 69 1014.1
20260506121559 72 117 0.0 4.0 0.00 0.00 0.00 70 1014.0
20260506120101 72 0 0.0 4.0 0.00 0.00 0.00 69 1013.8
20260506114609 73 138 0.0 1.0 0.00 0.00 0.00 68 1014.0